Terug naar catalogus

JILIN-01 GAOFEN 2B

ActiefWetenschapSSO
NORAD 44836·PAYLOAD·🇨🇳 China

Gelanceerd Dec 7, 2019 vanaf Taiyuan Satellite Launch Center

Loading…

Volgende Passages (komende 24 uur)

TLE

VersSource: Space-Track

Epoch: Sep 14, 2026, 13:03 UTC

1 44836U 19086A   26257.54400637  .00004772  00000-0  21419-3 0  9990
2 44836  97.4804 328.9920 0013947  13.9924 346.1696 15.21581298374072

Volg JILIN-01 GAOFEN 2B in realtime met AllMySat

Download on the App Store